Weather History for KGZH - November, 2012

Change the Weather History Date:

Wednesday, November 7, 2012

  Actual Average (KPRN) Record (KPRN)
Temperature  
Mean Temperature 54 °F -  
Max Temperature 63 °F 69 °F 85 °F (1986)
Min Temperature 44 °F 44 °F 27 °F (1959)
Degree Days  
Heating Degree Days 11    
Growing Degree Days 4 (Base 50)    
Moisture  
Dew Point 40 °F    
Average Humidity 64    
Maximum Humidity 90    
Minimum Humidity 39    
Precipitation  
Precipitation 0.00 in - - ()
Sea Level Pressure  
Sea Level Pressure 30.04 in    
Wind  
Wind Speed 4 mph (NNW)    
Max Wind Speed 10 mph    
Max Gust Speed 16 mph    
Visibility 10 miles    
Events      
Averages and records for this station are not official NWS values.
T = Trace of Precipitation, MM = Missing Value Source: NWS Daily Summary

Daily Weather History Graph

Daily Weather History Graph

Search for Another Location

Airport or City:

Trip Planner

Search our weather history database for the weather conditions in past years. The results will help you decide how hot, cold, wet, or windy it might be!

Date:

Astronomy

Nov. 07, 2012 Rise Set
Actual Time 6:09 AM CST 4:54 PM CST
Civil Twilight 5:43 AM CST 5:19 PM CST
Nautical Twilight 5:14 AM CST 5:48 PM CST
Astronomical Twilight 4:46 AM CST 6:16 PM CST
Moon No Moon Rise 12:39 PM CST (11/7)
Length of Visible Light 11h 35m
Length of Day
10h 44m
Last Quarter, 43% of the Moon is Illuminated
Nov 7
Last Quarter
Nov 13
New
Nov 20
First Quarter
Nov 28
Full
Dec 6
Last Quarter

Hourly Weather History & Observations

Time (CST) Temp. Windchill Dew Point Humidity Pressure Visibility Wind Dir Wind Speed Gust Speed Precip Events Conditions
12:53 AM 51.1 °F - 46.0 °F 83% 30.02 in 10.0 mi WNW 3.5 mph - N/A   Overcast
1:53 AM 48.9 °F - 45.0 °F 86% 30.01 in 10.0 mi Calm Calm - N/A   Clear
2:53 AM 48.0 °F - 45.0 °F 89% 30.01 in 10.0 mi Calm Calm - N/A   Clear
3:53 AM 46.9 °F - 43.0 °F 86% 30.01 in 10.0 mi Calm Calm - N/A   Clear
4:53 AM 46.0 °F 44.8 °F 43.0 °F 89% 30.02 in 9.0 mi Variable 3.5 mph - N/A   Clear
5:53 AM 45.0 °F - 42.1 °F 90% 30.03 in 8.0 mi Calm Calm - N/A   Clear
6:53 AM 46.0 °F - 43.0 °F 89% 30.04 in 7.0 mi Calm Calm - N/A   Mostly Cloudy
7:53 AM 50.0 °F - 45.0 °F 83% 30.05 in 10.0 mi Variable 3.5 mph - N/A   Clear
8:53 AM 55.9 °F - 44.1 °F 64% 30.05 in 10.0 mi Variable 6.9 mph - N/A   Clear
9:53 AM 60.1 °F - 44.1 °F 55% 30.04 in 10.0 mi NW 8.1 mph 16.1 mph N/A   Partly Cloudy
10:53 AM 61.0 °F - 42.1 °F 50% 30.02 in 10.0 mi North 9.2 mph - N/A   Scattered Clouds
11:53 AM 60.1 °F - 39.9 °F 47% 29.99 in 10.0 mi Variable 3.5 mph - N/A   Mostly Cloudy
12:53 PM 63.0 °F - 37.9 °F 40% 29.96 in 10.0 mi NW 6.9 mph - N/A   Scattered Clouds
1:53 PM 61.0 °F - 37.0 °F 41% 29.95 in 10.0 mi Variable 6.9 mph - N/A   Mostly Cloudy
2:53 PM 62.1 °F - 37.0 °F 39% 29.96 in 10.0 mi Variable 4.6 mph - N/A   Partly Cloudy
3:53 PM 61.0 °F - 37.9 °F 42% 29.98 in 10.0 mi WNW 5.8 mph - N/A   Mostly Cloudy
4:53 PM 59.0 °F - 37.9 °F 46% 30.00 in 10.0 mi Variable 4.6 mph - N/A   Overcast
5:53 PM 57.0 °F - 39.0 °F 51% 30.04 in 10.0 mi NNW 6.9 mph - N/A   Overcast
6:53 PM 55.9 °F - 36.0 °F 47% 30.06 in 10.0 mi NNW 10.4 mph 16.1 mph N/A   Overcast
7:53 PM 54.0 °F - 35.1 °F 49% 30.09 in 10.0 mi North 8.1 mph - N/A   Mostly Cloudy
8:53 PM 50.0 °F - 35.1 °F 57% 30.12 in 10.0 mi NNW 5.8 mph - N/A   Clear
9:53 PM 48.0 °F - 35.1 °F 61% 30.14 in 10.0 mi North 5.8 mph - N/A   Clear
10:53 PM 46.9 °F - 36.0 °F 66% 30.14 in 10.0 mi NNW 4.6 mph - N/A   Clear
11:53 PM 44.1 °F - 37.0 °F 76% 30.14 in 10.0 mi Calm Calm - N/A   Clear